User: anonymous   Login
Location: Holyhead Bay
(53.3667°N, 4.6667°W)
Time: 08:18:57
(UTC+00:00)
Language:

DMSP 5D-2 F13 DEB - Orbit

View from above orbital plane
View from above orbital plane
View from above satellite
View from above satellite

Ground track
Ground track

The orbit data is extracted from the following two-line orbital elements,

1 42290U 95015HG  21170.49013213  .00010086  00000-0  11819-2 0  9998
2 42290  98.7513   1.2817 0077505  52.1765 308.6428 14.83067923326938
Epoch (UTC): 19 June 2021 11:45:47
Eccentricity: 0.0077505
inclination: 98.7513°
perigee height: 565 km
apogee height: 674 km
right ascension of ascending node: 1.2817°
argument of perigee: 52.1765°
revolutions per day: 14.83067923
mean anomaly at epoch: 308.6428°
orbit number at epoch: 32693

The dashed part of the orbit path shows where the satellite is in the earth's shadow,  

DLR